Amendola, Italy

2:43 PM CET on December 16, 2017 (GMT +0100)
Amendola Mil

Weather History for LIBA - November, 2013

Change the Weather History Date:

Thursday, November 28, 2013

  Actual Average Record
Temperature  
Mean Temperature 44 °F -  
Max Temperature 50 °F 55 °F 68 °F (2002)
Min Temperature 37 °F 40 °F 32 °F (2006)
Degree Days  
Heating Degree Days 22    
Moisture  
Dew Point 37 °F    
Average Humidity 77    
Maximum Humidity 87    
Minimum Humidity 49    
Precipitation  
Precipitation 0.00 in 0.07 in - ()
Sea Level Pressure  
Sea Level Pressure 30.31 in    
Wind  
Wind Speed 3 mph ()    
Max Wind Speed 6 mph    
Max Gust Speed -    
Visibility 7.5 miles    
Events      
Averages and records for this station are not official NWS values.
T = Trace of Precipitation, MM = Missing Value Source: Averaged Metar Reports

Daily Weather History Graph

Daily Weather History Graph

Search for Another Location

Airport or City:

Trip Planner

Search our weather history database for the weather conditions in past years. The results will help you decide how hot, cold, wet, or windy it might be!

Date:

Astronomy

Nov. 28, 2013 Rise Set
Actual Time 7:00 AM CET 4:29 PM CET
Civil Twilight 6:30 AM CET 4:59 PM CET
Nautical Twilight 5:55 AM CET 5:33 PM CET
Astronomical Twilight 5:22 AM CET 6:07 PM CET
Moon 1:42 AM CET (11/28) 1:32 PM CET (11/28)
Length of Visible Light 10h 29m
Length of Day
9h 28m
Waning Crescent, 25% of the Moon is Illuminated
Nov 28
Waning Crescent
Dec 3
New
Dec 9
First Quarter
Dec 17
Full
Dec 25
Last Quarter

Hourly Weather History & Observations

Time (CET) Temp. Windchill Dew Point Humidity Pressure Visibility Wind Dir Wind Speed Gust Speed Precip Events Conditions
5:55 AM 37.4 °F 34.9 °F 33.8 °F 87% 30.27 in - West 3.5 mph - N/A   Clear
6:55 AM 37.4 °F 33.8 °F 33.8 °F 87% 30.30 in 6.2 mi WNW 4.6 mph - N/A   Partly Cloudy
7:00 AM 37 °F - 34 °F 84% 30.32 in 9 mi WNW 4.6 mph - -  
7:55 AM 37.4 °F 34.9 °F 33.8 °F 87% 30.30 in 6.2 mi WNW 3.5 mph - N/A   Partly Cloudy
8:55 AM 39.2 °F 35.0 °F 35.6 °F 87% 30.30 in 6.2 mi WNW 5.8 mph - N/A   Partly Cloudy
9:55 AM 41.0 °F 37.1 °F 35.6 °F 81% 30.33 in - WNW 5.8 mph - N/A   Clear
10:00 AM 41 °F - 35 °F 73% 30.35 in 9 mi WNW 5.8 mph - -   Mostly Cloudy
10:55 AM 44.6 °F 42.2 °F 35.6 °F 71% 30.33 in - WNW 4.6 mph - N/A   Clear
11:55 AM 46.4 °F - 37.4 °F 71% 30.33 in 6.2 mi Calm Calm - N/A   Partly Cloudy
12:55 PM 48.2 °F - 35.6 °F 62% 30.30 in 6.2 mi Calm Calm - N/A   Partly Cloudy
1:00 PM 49 °F - 36 °F 49% 30.33 in 12 mi Calm Calm - -  
1:55 PM 50.0 °F - 37.4 °F 62% 30.30 in 6.2 mi Calm Calm - N/A   Partly Cloudy
2:55 PM 48.2 °F - 39.2 °F 71% 30.30 in 6.2 mi Calm Calm - N/A   Partly Cloudy
3:55 PM 48.2 °F - 41.0 °F 76% 30.30 in 6.2 mi NW 3.5 mph - N/A   Partly Cloudy
4:00 PM 48 °F - 42 °F 72% 30.31 in 12 mi NW 3.5 mph - -   Scattered Clouds
4:55 PM 46.4 °F 45.2 °F 42.8 °F 87% 30.30 in 6.2 mi WNW 3.5 mph - N/A   Scattered Clouds
5:55 PM 44.6 °F 42.2 °F 41.0 °F 87% 30.30 in 6.2 mi WNW 4.6 mph - N/A   Scattered Clouds
6:55 PM 44.6 °F 42.2 °F 41.0 °F 87% 30.30 in 6.2 mi WNW 4.6 mph - N/A   Scattered Clouds
7:00 PM 45 °F - 41 °F 81% 30.32 in 9 mi WNW 4.6 mph - -   Overcast